Skip Page Navigation
NASA JPL Caltech
NASA Logo - Jet Propulsion Laboratory + View the NASA Portal
+ Center for Near-Earth Object Studies
JPL Home Earth Solar System Stars & Galaxies Technology
JPL Solar System Dynamics
BODIES ORBITS EPHEMERIDES TOOLS PHYSICAL DATA DISCOVERY FAQ SITE MAP
JPL Small-Body Database Browser
Search: [ help ]  
49414 (1998 XT65)
Classification: Main-belt Asteroid          SPK-ID: 2049414
Ephemeris | Orbit Diagram | Orbital Elements | Mission Design | Physical Parameters | Discovery Circumstances | Close-Approach Data ]

[ show orbit diagram ]
Orbital Elements at Epoch 2459000.5 (2020-May-31.0) TDB
Reference: JPL 19 (heliocentric ecliptic J2000)
 Element Value Uncertainty (1-sigma)   Units 
e .1932102111589591 4.0696e-08  
a 2.606074878126545 9.8995e-09 au
q 2.102554600627657 1.0609e-07 au
i 6.486031266833018 4.7085e-06 deg
node 65.28017583633367 3.377e-05 deg
peri 356.6326429948446 3.5807e-05 deg
M 42.19059164565805 9.7841e-06 deg
tp 2458820.409055253924
(2019-Dec-02.90905525)
4.1853e-05 TDB
period 1536.66344983004
4.21
8.7558e-06
2.397e-08
d
yr
n .2342738092975513 1.3349e-09 deg/d
Q 3.109595155625434 1.1812e-08 au
  Orbit Determination Parameters
   # obs. used (total)      762  
   data-arc span      15393 days (42.14 yr)  
   first obs. used      1977-12-07  
   last obs. used      2020-01-29  
   planetary ephem.      DE431  
   SB-pert. ephem.      SB431-N16  
   condition code      0  
   norm. resid. RMS      .47624  
   source      ORB  
   producer      Otto Matic  
   solution date      2020-Feb-23 09:26:11  

Additional Information
 Earth MOID = 1.11564 au 
 Jupiter MOID = 2.22446 au 
 T_jup = 3.376 
[ show covariance matrix ]

Ephemeris | Orbit Diagram | Orbital Elements | Mission Design | Physical Parameters | Discovery Circumstances | Close-Approach Data ]

Physical Parameter Table
Parameter Symbol Value Units Sigma Reference Notes
absolute magnitude H 15.4   n/a MPO502485  

49414 (1998 XT65)          Discovered 1998-Dec-14 by LINEAR at Socorro
Reference: 20021120/Numbers.arcLast Updated: 2004-04-19

[ show close-approach data ]
Alternate Designations
 1998 XT65 = 1977 XS1 = 1996 HW2 
Ephemeris | Orbit Diagram | Orbital Elements | Mission Design | Physical Parameters | Discovery Circumstances | Close-Approach Data ]
ABOUT SSD CREDITS/AWARDS PRIVACY/COPYRIGHT GLOSSARY LINKS
FirstGov 2020-Jul-13 15:08 UT
(server date/time)  
NASA Home Page
Site Manager:   Ryan S. Park
Webmaster  Alan B. Chamberlin